Location: Augsburg
(48.3836°N, 10.8929°E)
Time: 16:53:07
(UTC+02:00)

ISS - Pass Details

Date: 25 May 2021
Orbit: 417 x 422 km, 51.6° (Epoch: 13 June)

Event Time Altitude Azimuth Distance (km) Brightness Sun altitude
Rises 23:48:29 0° 291° (WNW) 2,369 0.7 -17.9°
Reaches altitude 10° 23:50:38 10° 285° (WNW) 1,503 -0.5 -18.1°
Enters shadow 23:53:41 43° 223° (SW) 600 -3.2 -18.2°
